Location: Ripley
(48.3812°N, 115.4473°W)
Time: 01:33:08
(UTC+00:00)

CAS-4A - Visible Passes

Search period start: 02 July 2022 00:00
Search period end: 12 July 2022 00:00
Orbit: 523 x 536 km, 43.0° (Epoch: 01 July)

Date Brightness Start Highest point End Pass type
(mag) Time Alt. Az. Time Alt. Az. Time Alt. Az.
02 Jul ? 09:44:42 22° S 09:45:48 25° SSE 09:49:09 10° ESE visible
03 Jul ? 09:32:24 26° S 09:33:11 27° SSE 09:36:38 10° ESE visible
04 Jul ? 09:20:07 29° S 09:20:34 30° SSE 09:24:07 10° ESE visible
04 Jul ? 10:56:20 10° WSW 11:00:06 38° S 11:03:52 10° ESE visible
05 Jul ? 09:07:50 32° S 09:07:58 32° SSE 09:11:35 10° ESE visible
05 Jul ? 10:43:45 10° WSW 10:47:30 37° S 10:51:15 10° ESE visible
06 Jul ? 08:55:36 34° SSE 08:55:36 34° SSE 08:59:01 10° ESE visible
06 Jul ? 10:31:11 10° WSW 10:34:53 36° S 10:38:37 10° ESE visible
07 Jul ? 08:43:27 33° SSE 08:43:27 33° SSE 08:46:26 10° ESE visible
07 Jul ? 10:18:39 10° WSW 10:22:17 34° S 10:25:57 10° SE visible
08 Jul ? 08:31:29 28° SE 08:31:29 28° SE 08:33:51 10° ESE visible
08 Jul ? 10:06:41 14° WSW 10:09:39 32° SSW 10:13:17 10° SE visible
09 Jul ? 08:19:50 20° ESE 08:19:50 20° ESE 08:21:15 10° ESE visible
09 Jul ? 09:55:04 20° WSW 09:57:02 30° SSW 10:00:35 10° SE visible
10 Jul ? 09:44:10 27° SSW 09:44:23 28° SSW 09:47:50 10° SE visible
11 Jul ? 04:32:42 10° SSE 04:33:36 11° SSE 04:34:30 10° SE visible
11 Jul ? 06:09:18 10° SW 06:10:14 15° SW 06:10:14 15° SW visible
11 Jul ? 09:34:27 13° SSE 09:34:27 13° SSE 09:35:04 10° SE visible
